User: anonymous
Location: Unspecified
(0.0000°N, 0.0000°E)
Time: 16:15:13
(UTC+00:00)
Language:

USA 200 - Orbit

View from above orbital plane
View from above orbital plane
View from above satellite
View from above satellite

Ground track
Ground track

The orbit data is extracted from the following two-line orbital elements,

1 32706U 08010A   14259.42000054 -.00000285  00000-0  00000-0 0    02
2 32706  63.1147 116.5379 6922882 267.9886  18.3399  2.00599694    04
Epoch (UTC): 16 September 2014 10:04:48
Eccentricity: 0.6922882
inclination: 63.1147°
perigee height: 1794 km
apogee height: 38564 km
right ascension of ascending node: 116.5379°
argument of perigee: 267.9886°
revolutions per day: 2.00599694
mean anomaly at epoch: 18.3399°
orbit number at epoch: 0

The dashed part of the orbit path shows where the satellite is in the earth's shadow,  

DLR